User: anonymous   Login
Location: Unspecified
(0.0000°N, 0.0000°E)
Time: 01:56:47
(UTC+00:00)
Language:

Meteosat 2 - Orbit

View from above orbital plane
View from above orbital plane
View from above satellite
View from above satellite

Ground track
Ground track

The orbit data is extracted from the following two-line orbital elements,

1 12544U 81057A   17147.38937949 -.00000233 +00000-0 +00000-0 0  9998
2 12544 015.0109 347.9193 0032418 295.3137 060.9382 00.98725569091221
Epoch (UTC): 27 May 2017 09:20:42
Eccentricity: 0.0032418
inclination: 15.0109°
perigee height: 36087 km
apogee height: 36363 km
right ascension of ascending node: 347.9193°
argument of perigee: 295.3137°
revolutions per day: 0.98725569
mean anomaly at epoch: 60.9382°
orbit number at epoch: 9122

The dashed part of the orbit path shows where the satellite is in the earth's shadow,  

DLR